Regional Weather Roundup
Issued by NWS

Home | Current Version | Previous Version | Graphics & Text | Print | Product List | Glossary On
Versions: 1 2 3 4 5 6 7 8 9 10 11 12 13 14 15 16 17 18 19 20 21 22 23 24 25 26 27 28 29 30 31 32 33 34 35 36 37 38 39 40 41 42 43 44 45 46 47 48 49 50
000
ASUS43 KLOT 301403
RWRIL

ILLINOIS REGIONAL WEATHER ROUNDUP
NATIONAL WEATHER SERVICE CHICAGO/ROMEOVILLE IL
900 AM CDT SAT APR 30 2016

NOTE: "FAIR" INDICATES FEW OR NO CLOUDS BELOW 12,000 FEET WITH NO
SIGNIFICANT WEATHER AND/OR OBSTRUCTIONS TO VISIBILITY.

* THESE STATIONS ARE NOT UNDER NWS QUALITY CONTROL. THEY ALSO MAY NOT
  REPORT WEATHER SUCH AS PRECIPITATION OR FOG.

ILZ001-002-007-009-015-016-024-301500-
NORTHWEST ILLINOIS

CITY           SKY/WX    TMP DP  RH WIND       PRES   REMARKS
MOLINE         LGT RAIN  48  44  86 E20G26    29.89F FOG
STERLING*      CLOUDY    48  45  87 E17       29.96F
$$

ILZ003-004-008-010-011-017-018-301500-
NORTH CENTRAL ILLINOIS

CITY           SKY/WX    TMP DP  RH WIND       PRES   REMARKS
ROCKFORD       CLOUDY    48  42  80 E10       30.04S
FREEPORT*      CLOUDY    46  42  85 E14G20    30.02R
ROCHELLE*      CLOUDY    48  44  84 E16       30.00F FOG
DE KALB*       CLOUDY    48  43  84 E14       30.02S HAZE
$$

ILZ005-006-012>014-019>023-301500-
NORTHEAST ILLINOIS

CITY           SKY/WX    TMP DP  RH WIND       PRES   REMARKS
CHICAGO-OHARE  CLOUDY    48  41  76 E14       30.04S
CHICAGO-MIDWAY CLOUDY    50  39  66 E13       30.05R
AURORA         CLOUDY    51  43  74 E15       30.02S HAZE
LANSING*       CLOUDY    48  40  74 E9        30.04S
WAUKEGAN       PTSUNNY   44  41  89 E12       30.06F
DUPAGE AIRPORT CLOUDY    49  40  71 E9        30.02S
WHEELING       CLOUDY    46  41  82 E7        30.07R
MORRIS*        RAIN      49  43  80 E18       29.98F
NORTHERLY ISL    N/A     46  41  82 E13         N/A
NORTHERLY ISL    N/A     46  41  82 E13         N/A
$$

LMZ740>746-301500-
SOUTHERN LAKE MICHIGAN

STATION/POSITION SKY/WX   TEMP    WIND        PRES    VSBY  WAVE
                          AIR SEA DIR/SP/G                  HT/PER
                          (F)     (DEG/KT/KT) (MB)    (MI)  (FT/S)
SOUTHERN BUOY              42 40   90/ 10/ 12 1019.6          1/ 3
HARRISON CRIB              45      90/ 16/ 17   N/A
BURNHAM HARBOR             46      80/ 13/ 13   N/A
CALUMET HARBOR             47      70/ 10/ 14 1016.9F
BURNS HARBOR               48     100/ 12/ 17 1018.3F
MICHIGAN CITY              47      70/  9/ 11   N/A
ST. JOSEPH                 48 47                N/A           1/ 3
$$

ILZ025>027-034>036-040-047-049-050-058-095>099-301500-
WEST-CENTRAL ILLINOIS

CITY           SKY/WX    TMP DP  RH WIND       PRES   REMARKS
QUINCY         LGT RAIN  53  52  96 E18G29    29.75F FOG
MACOMB*        LGT RAIN  50  50  99 E23G31    29.82F
PITTSFIELD*    LGT RAIN  56  55  98 E12       29.79S
$$

ILZ028>032-037-038-041>044-048-051>054-059>061-301500-
CENTRAL ILLINOIS

CITY           SKY/WX    TMP DP  RH WIND       PRES   REMARKS
BLOOMINGTON    LGT RAIN  50  50 100 E18       29.92F FOG
DECATUR        LGT RAIN  54  51  90 E21G28    29.89F FOG
PEORIA         RAIN      50  48  93 E14       29.89F FOG
LACON*         LGT RAIN  49  47  94 E14G20    29.93F
LINCOLN*       LGT RAIN  54  53  97 E17       29.87F
SPRINGFIELD    LGT RAIN  56  55  97 E18G26    29.84F FOG
TAYLORVILLE    NOT AVBL
$$

ILZ033-039-045-046-055>057-062-063-301500-
EAST-CENTRAL ILLINOIS

CITY           SKY/WX    TMP DP  RH WIND       PRES   REMARKS
CHAMPAIGN      RAIN      52  51  97 E16       29.95S FOG
MATTOON        LGT RAIN  54  52  93 E13       29.91F FOG
$$

ILZ079-100>102-301500-
SOUTHWEST ILLINOIS

CITY           SKY/WX    TMP DP  RH WIND       PRES   REMARKS
ALTON          CLOUDY    57  57 100 SE16G23   29.76F
CAHOKIA*       CLOUDY    61  58  90 VRB5G23   29.78R
SPARTA*        LGT RAIN  59  58  98 SE10      29.80F
$$

ILZ064>066-069>071-074>076-080>082-084>086-088>090-092>094-301500-
SOUTH-CENTRAL ILLINOIS

CITY           SKY/WX    TMP DP  RH WIND       PRES   REMARKS
CARBONDALE     LGT RAIN  61  59  93 SE8       29.84R
CAIRO*         DRIZZLE   62  62  99 E7        29.82F
EFFINGHAM*     LGT RAIN  57  57 100 E15G21    29.92S
MARION         LGT RAIN  61  61 100 SE9       29.85S
MT. VERNON     CLOUDY    57  54  88 E9        29.86F
SALEM*         RAIN      59  57  92 E8        29.85F
$$

ILZ067-068-072-073-078-083-087-091-301500-
SOUTHEAST ILLINOIS

CITY           SKY/WX    TMP DP  RH WIND       PRES   REMARKS
LAWRENCEVILLE  LGT RAIN  58  58 100 E10       29.93F FOG
FLORA*         LGT RAIN  59  57  94 E10       29.89F
HARRISBURG*    RAIN      59  59  99 E6        29.89R
ROBINSON*      LGT RAIN  56  55  97 E10       29.95S
$$

ABBREVIATIONS USED IN REMARKS
   TC - TEMPERATURE IN CELSIUS
  WCI - WIND CHILL INDEX
   HX - HEAT INDEX
  VSB - VISIBILITY
$$




USA.gov is the U.S. government's official web portal to all federal, state and local government web resources and services.